TimeAKDT,TemperatureF,Dew PointF,Humidity,Sea Level PressureIn,VisibilityMPH,Wind Direction,Wind SpeedMPH,Gust SpeedMPH,PrecipitationIn,Events,Conditions,WindDirDegrees,DateUTC
12:32 AM,12.2,8.6,85,30.40,10.0,Calm,Calm,-,N/A,,Overcast,0,2012-10-20 08:32:00
12:55 AM,11.8,9.0,88,30.41,10.0,Calm,Calm,-,N/A,,Overcast,0,2012-10-20 08:55:00
1:48 AM,12.2,8.6,85,30.42,10.0,Calm,Calm,-,N/A,,Overcast,0,2012-10-20 09:48:00
1:55 AM,12.4,9.3,88,30.42,10.0,Calm,Calm,-,N/A,,Overcast,0,2012-10-20 09:55:00
2:05 AM,12.2,8.6,85,30.42,10.0,Calm,Calm,-,N/A,,Overcast,0,2012-10-20 10:05:00
2:07 AM,12.2,8.6,85,30.42,10.0,Calm,Calm,-,N/A,,Overcast,0,2012-10-20 10:07:00
2:55 AM,12.9,9.9,88,30.42,10.0,Calm,Calm,-,N/A,,Overcast,0,2012-10-20 10:55:00
3:09 AM,12.2,10.4,92,30.43,10.0,Calm,Calm,-,N/A,,Overcast,0,2012-10-20 11:09:00
3:55 AM,14.5,11.7,88,30.43,10.0,Calm,Calm,-,N/A,,Overcast,0,2012-10-20 11:55:00
4:55 AM,15.6,12.9,89,30.44,10.0,Calm,Calm,-,N/A,,Overcast,0,2012-10-20 12:55:00
5:15 AM,15.8,12.2,86,30.45,10.0,Calm,Calm,-,N/A,,Overcast,0,2012-10-20 13:15:00
5:55 AM,16.3,13.6,89,30.45,10.0,Calm,Calm,-,N/A,,Overcast,0,2012-10-20 13:55:00
6:55 AM,15.1,12.2,88,30.47,10.0,Calm,Calm,-,0.00,,Overcast,0,2012-10-20 14:55:00
7:55 AM,14.7,11.8,88,30.49,10.0,Calm,Calm,-,0.00,,Overcast,0,2012-10-20 15:55:00
8:55 AM,14.9,12.0,88,30.51,10.0,Calm,Calm,-,N/A,Snow,Light Snow,0,2012-10-20 16:55:00
9:06 AM,15.8,12.2,86,30.51,10.0,Calm,Calm,-,N/A,Snow,Light Snow,0,2012-10-20 17:06:00
9:41 AM,14.0,12.2,93,30.51,9.0,Calm,Calm,-,N/A,Snow,Light Snow,0,2012-10-20 17:41:00
9:55 AM,14.9,12.0,88,30.52,10.0,Calm,Calm,-,0.00,Snow,Light Snow,0,2012-10-20 17:55:00
10:31 AM,15.8,12.2,86,30.53,10.0,Calm,Calm,-,N/A,,Mostly Cloudy,0,2012-10-20 18:31:00
10:55 AM,16.5,13.1,86,30.54,10.0,Calm,Calm,-,0.00,,Overcast,0,2012-10-20 18:55:00
11:55 AM,18.0,14.5,86,30.54,10.0,Calm,Calm,-,N/A,,Overcast,0,2012-10-20 19:55:00
12:55 PM,19.9,15.6,83,30.55,10.0,Calm,Calm,-,N/A,,Overcast,0,2012-10-20 20:55:00
1:55 PM,20.5,16.2,83,30.56,10.0,Calm,Calm,-,N/A,,Overcast,0,2012-10-20 21:55:00
2:55 PM,21.6,16.9,82,30.57,10.0,Calm,Calm,-,N/A,,Overcast,0,2012-10-20 22:55:00
3:55 PM,21.4,16.9,83,30.57,10.0,Calm,Calm,-,N/A,,Overcast,0,2012-10-20 23:55:00
4:55 PM,21.4,17.1,83,30.57,10.0,Calm,Calm,-,N/A,,Overcast,0,2012-10-21 00:55:00
5:55 PM,21.2,17.4,85,30.58,10.0,Calm,Calm,-,N/A,,Overcast,0,2012-10-21 01:55:00
6:55 PM,21.0,17.4,86,30.59,10.0,Calm,Calm,-,N/A,,Overcast,0,2012-10-21 02:55:00
7:55 PM,21.7,16.9,82,30.60,10.0,Calm,Calm,-,N/A,,Overcast,0,2012-10-21 03:55:00
8:55 PM,21.4,16.9,83,30.61,10.0,SSE,3.5,-,N/A,,Overcast,150,2012-10-21 04:55:00
9:55 PM,20.8,15.3,79,30.62,10.0,ESE,5.8,-,N/A,,Overcast,110,2012-10-21 05:55:00
10:55 PM,19.9,14.9,81,30.62,10.0,ESE,4.6,-,N/A,,Overcast,110,2012-10-21 06:55:00
11:55 PM,18.7,14.2,83,30.62,10.0,SSE,5.8,-,N/A,,Overcast,150,2012-10-21 07:55:00